| time (UTC) | temp C | wind direction | speed KPH | gust KPH | rain 1hr cm | rain 24hr cm | rain mn cm | humidity % | barometer mb |
| 20260502162103 | 13 | 278 | 9.7 | 17.7 | 0.00 | 0.00 | 0.00 | 23 | 1020.2 |
| 20260502152104 | 11 | 261 | 9.7 | 16.1 | 0.00 | 0.00 | 0.00 | 29 | 1020.5 |
| 20260502122104 | 3 | 0 | 0.0 | 0.0 | 0.00 | 0.00 | 0.00 | 52 | 1020.4 |
| 20260502121603 | 3 | 0 | 0.0 | 0.0 | 0.00 | 0.00 | 0.00 | 52 | 1020.5 |
| 20260502121104 | 3 | 0 | 0.0 | 0.0 | 0.00 | 0.00 | 0.00 | 52 | 1020.4 |
| 20260502113104 | 1 | 0 | 0.0 | 0.0 | 0.00 | 0.00 | 0.00 | 54 | 1020.1 |
| 20260502111104 | 1 | 0 | 0.0 | 0.0 | 0.00 | 0.00 | 0.00 | 54 | 1020.1 |
| 20260502103104 | 1 | 0 | 0.0 | 0.0 | 0.00 | 0.00 | 0.00 | 55 | 1020.0 |
| 20260502101603 | 2 | 0 | 0.0 | 0.0 | 0.00 | 0.00 | 0.00 | 53 | 1019.9 |
| 20260502080103 | 3 | 0 | 0.0 | 0.0 | 0.00 | 0.00 | 0.00 | 46 | 1019.7 |
| 20260502070602 | 3 | 0 | 0.0 | 0.0 | 0.00 | 0.00 | 0.00 | 47 | 1019.8 |
| 20260502065603 | 3 | 0 | 0.0 | 0.0 | 0.00 | 0.00 | 0.00 | 44 | 1019.9 |
| 20260502060603 | 4 | 0 | 0.0 | 0.0 | 0.00 | 0.00 | 0.00 | 45 | 1019.7 |
| 20260502053602 | 5 | 0 | 0.0 | 0.0 | 0.00 | 0.00 | 0.00 | 40 | 1019.5 |
| 20260502052602 | 5 | 0 | 0.0 | 0.0 | 0.00 | 0.00 | 0.00 | 40 | 1019.5 |
| 20260502045103 | 5 | 0 | 0.0 | 0.0 | 0.00 | 0.00 | 0.00 | 38 | 1019.3 |
| 20260502035103 | 6 | 0 | 0.0 | 0.0 | 0.00 | 0.00 | 0.00 | 38 | 1019.2 |
| 20260502034602 | 6 | 0 | 0.0 | 0.0 | 0.00 | 0.00 | 0.00 | 37 | 1019.2 |
| 20260502030104 | 7 | 18 | 1.6 | 6.4 | 0.00 | 0.00 | 0.00 | 33 | 1018.9 |
| 20260502024603 | 7 | 1 | 1.6 | 3.2 | 0.00 | 0.00 | 0.00 | 33 | 1018.8 |
| 20260502023602 | 7 | 357 | 1.6 | 3.2 | 0.00 | 0.00 | 0.00 | 33 | 1018.7 |
| 20260502022104 | 8 | 340 | 3.2 | 4.8 | 0.00 | 0.00 | 0.00 | 32 | 1018.6 |
| 20260502020603 | 8 | 345 | 3.2 | 4.8 | 0.00 | 0.00 | 0.00 | 31 | 1018.4 |
| 20260502011103 | 10 | 345 | 9.7 | 19.3 | 0.00 | 0.00 | 0.00 | 26 | 1017.9 |
| 20260502010603 | 10 | 349 | 11.3 | 19.3 | 0.00 | 0.00 | 0.00 | 26 | 1017.9 |
| 20260502005602 | 11 | 351 | 11.3 | 17.7 | 0.00 | 0.00 | 0.00 | 25 | 1017.8 |
| 20260502005103 | 11 | 354 | 11.3 | 20.9 | 0.00 | 0.00 | 0.00 | 24 | 1017.7 |
| 20260502003103 | 11 | 354 | 14.5 | 27.4 | 0.00 | 0.00 | 0.00 | 23 | 1017.4 |
| 20260502002603 | 11 | 348 | 14.5 | 27.4 | 0.00 | 0.00 | 0.00 | 23 | 1017.4 |
| 20260502002103 | 12 | 346 | 12.9 | 20.9 | 0.00 | 0.00 | 0.00 | 23 | 1017.4 |
| 20260502001103 | 12 | 348 | 16.1 | 27.4 | 0.00 | 0.00 | 0.00 | 23 | 1017.4 |
| 20260502000104 | 12 | 353 | 16.1 | 30.6 | 0.00 | 0.00 | 0.00 | 23 | 1017.3 |
| 20260501235103 | 12 | 335 | 17.7 | 33.8 | 0.00 | 0.00 | 0.00 | 22 | 1017.3 |
| 20260501234603 | 12 | 338 | 16.1 | 25.7 | 0.00 | 0.00 | 0.00 | 23 | 1017.2 |
| 20260501234103 | 12 | 341 | 16.1 | 25.7 | 0.00 | 0.00 | 0.00 | 23 | 1017.3 |
| 20260501233104 | 12 | 337 | 14.5 | 25.7 | 0.00 | 0.00 | 0.00 | 23 | 1017.2 |
| 20260501231103 | 13 | 332 | 14.5 | 27.4 | 0.00 | 0.00 | 0.00 | 22 | 1017.2 |
| 20260501230603 | 13 | 324 | 16.1 | 27.4 | 0.00 | 0.00 | 0.00 | 23 | 1017.1 |
| 20260501225104 | 12 | 332 | 16.1 | 29.0 | 0.00 | 0.00 | 0.00 | 22 | 1017.1 |
| 20260501224602 | 12 | 327 | 16.1 | 29.0 | 0.00 | 0.00 | 0.00 | 22 | 1017.2 |
| 20260501223104 | 12 | 350 | 19.3 | 32.2 | 0.00 | 0.00 | 0.00 | 23 | 1017.2 |
| 20260501220104 | 13 | 356 | 16.1 | 27.4 | 0.00 | 0.00 | 0.00 | 22 | 1017.1 |
| 20260501215103 | 13 | 338 | 19.3 | 30.6 | 0.00 | 0.00 | 0.00 | 23 | 1017.1 |
| 20260501214603 | 12 | 321 | 19.3 | 30.6 | 0.00 | 0.00 | 0.00 | 21 | 1017.1 |
| 20260501213104 | 12 | 327 | 17.7 | 29.0 | 0.00 | 0.00 | 0.00 | 22 | 1017.1 |
| 20260501210103 | 12 | 352 | 16.1 | 33.8 | 0.00 | 0.00 | 0.00 | 21 | 1017.2 |
| 20260501204104 | 13 | 330 | 17.7 | 32.2 | 0.00 | 0.00 | 0.00 | 21 | 1017.4 |
| 20260501202603 | 13 | 342 | 17.7 | 33.8 | 0.00 | 0.00 | 0.00 | 21 | 1017.4 |
| 20260501201103 | 13 | 323 | 19.3 | 32.2 | 0.00 | 0.00 | 0.00 | 24 | 1017.4 |
| 20260501195602 | 13 | 320 | 19.3 | 33.8 | 0.00 | 0.00 | 0.00 | 25 | 1017.5 |
| 20260501195104 | 13 | 309 | 19.3 | 35.4 | 0.00 | 0.00 | 0.00 | 24 | 1017.5 |
| 20260501193603 | 13 | 329 | 16.1 | 32.2 | 0.00 | 0.00 | 0.00 | 23 | 1017.4 |
| 20260501193103 | 12 | 333 | 16.1 | 30.6 | 0.00 | 0.00 | 0.00 | 25 | 1017.4 |
| 20260501191103 | 12 | 310 | 16.1 | 29.0 | 0.00 | 0.00 | 0.00 | 27 | 1017.4 |
| 20260501184104 | 12 | 333 | 19.3 | 32.2 | 0.00 | 0.00 | 0.00 | 29 | 1017.4 |
| 20260501182603 | 13 | 321 | 17.7 | 29.0 | 0.00 | 0.00 | 0.00 | 29 | 1017.3 |
| 20260501180602 | 12 | 327 | 17.7 | 29.0 | 0.00 | 0.00 | 0.00 | 30 | 1017.4 |
| 20260501175103 | 12 | 339 | 19.3 | 33.8 | 0.00 | 0.00 | 0.00 | 33 | 1017.6 |
| 20260501174103 | 11 | 325 | 16.1 | 27.4 | 0.00 | 0.00 | 0.00 | 35 | 1017.6 |
| 20260501173103 | 11 | 330 | 16.1 | 29.0 | 0.00 | 0.00 | 0.00 | 36 | 1017.6 |
| 20260501172103 | 11 | 326 | 17.7 | 27.4 | 0.00 | 0.00 | 0.00 | 38 | 1017.7 |
| 20260501170603 | 11 | 329 | 16.1 | 32.2 | 0.00 | 0.00 | 0.00 | 41 | 1017.7 |
| 20260501170103 | 11 | 333 | 17.7 | 32.2 | 0.00 | 0.00 | 0.00 | 42 | 1017.8 |
| 20260501163603 | 11 | 330 | 16.1 | 27.4 | 0.00 | 0.00 | 0.00 | 44 | 1017.8 |
| 20260501162603 | 11 | 323 | 19.3 | 29.0 | 0.00 | 0.00 | 0.00 | 44 | 1017.7 |